Time,TemperatureF,DewpointF,PressureIn,WindDirection,WindDirectionDegrees,WindSpeedMPH,WindSpeedGustMPH,Humidity,HourlyPrecipIn,Conditions,Clouds,dailyrainin,SoftwareType,DateUTC
2013-11-04 00:04:00,42.4,36.0,30.22,SE,136,4.0,12.0,79,0.00,,,0.00,weatherlink.com 1.10,2013-11-04 06:04:00,
2013-11-04 00:19:00,42.2,36.0,30.22,ESE,119,8.0,11.0,80,0.00,,,0.00,weatherlink.com 1.10,2013-11-04 06:19:00,
2013-11-04 00:34:00,42.5,36.0,30.22,ESE,120,9.0,11.0,79,0.00,,,0.00,weatherlink.com 1.10,2013-11-04 06:34:00,
2013-11-04 00:49:00,42.4,36.0,30.21,ESE,119,8.0,13.0,79,0.00,,,0.00,weatherlink.com 1.10,2013-11-04 06:49:00,
2013-11-04 01:04:00,42.3,37.0,30.21,ESE,120,7.0,12.0,80,0.00,,,0.00,weatherlink.com 1.10,2013-11-04 07:04:00,
2013-11-04 01:19:00,42.8,37.0,30.22,ESE,118,4.0,12.0,79,0.00,,,0.00,weatherlink.com 1.10,2013-11-04 07:19:00,
2013-11-04 01:34:00,43.8,37.0,30.22,SE,135,7.0,14.0,77,0.00,,,0.00,weatherlink.com 1.10,2013-11-04 07:34:00,
2013-11-04 01:49:00,44.1,38.0,30.22,SSE,150,10.0,14.0,78,0.00,,,0.00,weatherlink.com 1.10,2013-11-04 07:49:00,
2013-11-04 02:04:00,44.4,38.0,30.22,South,172,7.0,14.0,77,0.00,,,0.00,weatherlink.com 1.10,2013-11-04 08:04:00,
2013-11-04 02:19:00,44.5,38.0,30.22,SE,132,4.0,15.0,77,0.00,,,0.00,weatherlink.com 1.10,2013-11-04 08:19:00,
2013-11-04 02:34:00,44.3,38.0,30.22,SE,134,6.0,15.0,77,0.00,,,0.00,weatherlink.com 1.10,2013-11-04 08:34:00,
2013-11-04 02:49:00,44.1,38.0,30.22,SE,129,6.0,15.0,78,0.00,,,0.00,weatherlink.com 1.10,2013-11-04 08:49:00,
2013-11-04 03:04:00,44.0,38.0,30.21,SSE,160,7.0,17.0,78,0.00,,,0.00,weatherlink.com 1.10,2013-11-04 09:04:00,
2013-11-04 03:19:00,43.6,38.0,30.21,ESE,110,10.0,14.0,79,0.00,,,0.00,weatherlink.com 1.10,2013-11-04 09:19:00,
2013-11-04 03:34:00,43.4,38.0,30.21,SE,134,12.0,16.0,80,0.00,,,0.00,weatherlink.com 1.10,2013-11-04 09:34:00,
2013-11-04 03:49:00,43.3,38.0,30.20,SE,125,13.0,15.0,80,0.00,,,0.00,weatherlink.com 1.10,2013-11-04 09:49:00,
2013-11-04 04:04:00,43.3,38.0,30.21,ESE,110,11.0,14.0,80,0.00,,,0.00,weatherlink.com 1.10,2013-11-04 10:04:00,
2013-11-04 04:19:00,43.3,38.0,30.20,ESE,120,11.0,15.0,81,0.00,,,0.00,weatherlink.com 1.10,2013-11-04 10:19:00,
2013-11-04 04:34:00,43.3,38.0,30.21,SE,125,6.0,17.0,81,0.00,,,0.00,weatherlink.com 1.10,2013-11-04 10:34:00,
2013-11-04 04:49:00,43.3,38.0,30.20,SE,128,12.0,16.0,81,0.00,,,0.00,weatherlink.com 1.10,2013-11-04 10:49:00,
2013-11-04 05:04:00,43.5,38.0,30.21,SE,132,8.0,15.0,81,0.00,,,0.00,weatherlink.com 1.10,2013-11-04 11:04:00,
2013-11-04 05:19:00,43.4,38.0,30.21,ESE,120,6.0,15.0,81,0.00,,,0.00,weatherlink.com 1.10,2013-11-04 11:19:00,
2013-11-04 05:34:00,43.2,38.0,30.21,SE,132,8.0,14.0,82,0.00,,,0.00,weatherlink.com 1.10,2013-11-04 11:34:00,
2013-11-04 05:49:00,43.3,38.0,30.20,SE,134,14.0,14.0,82,0.00,,,0.00,weatherlink.com 1.10,2013-11-04 11:49:00,
2013-11-04 06:04:00,43.2,38.0,30.21,SE,129,5.0,14.0,82,0.00,,,0.00,weatherlink.com 1.10,2013-11-04 12:04:00,
2013-11-04 06:20:00,43.1,38.0,30.20,SE,141,6.0,15.0,82,0.00,,,0.00,weatherlink.com 1.10,2013-11-04 12:20:00,
2013-11-04 06:35:00,43.1,38.0,30.19,SE,125,10.0,16.0,82,0.00,,,0.00,weatherlink.com 1.10,2013-11-04 12:35:00,
2013-11-04 06:50:00,43.1,38.0,30.18,SE,132,11.0,20.0,82,0.00,,,0.00,weatherlink.com 1.10,2013-11-04 12:50:00,
2013-11-04 07:05:00,43.3,38.0,30.17,SE,129,14.0,20.0,82,0.00,,,0.00,weatherlink.com 1.10,2013-11-04 13:05:00,
2013-11-04 07:20:00,43.4,38.0,30.18,SSE,150,8.0,17.0,82,0.00,,,0.00,weatherlink.com 1.10,2013-11-04 13:20:00,
2013-11-04 07:35:00,43.5,38.0,30.19,ESE,108,13.0,18.0,82,0.00,,,0.00,weatherlink.com 1.10,2013-11-04 13:35:00,
2013-11-04 07:50:00,43.9,39.0,30.19,SSE,159,9.0,23.0,82,0.00,,,0.00,weatherlink.com 1.10,2013-11-04 13:50:00,
2013-11-04 08:05:00,44.2,39.0,30.20,SE,141,12.0,22.0,82,0.00,,,0.00,weatherlink.com 1.10,2013-11-04 14:05:00,
2013-11-04 08:20:00,44.4,39.0,30.19,SE,135,9.0,23.0,81,0.00,,,0.00,weatherlink.com 1.10,2013-11-04 14:20:00,
2013-11-04 08:35:00,44.9,39.0,30.19,SSE,155,18.0,22.0,80,0.00,,,0.00,weatherlink.com 1.10,2013-11-04 14:35:00,
2013-11-04 08:50:00,45.2,40.0,30.19,SSE,155,15.0,25.0,81,0.00,,,0.00,weatherlink.com 1.10,2013-11-04 14:50:00,
2013-11-04 09:05:00,45.6,40.0,30.18,SSE,158,18.0,22.0,80,0.00,,,0.00,weatherlink.com 1.10,2013-11-04 15:05:00,
2013-11-04 09:20:00,47.4,41.0,30.18,SSE,149,15.0,22.0,77,0.00,,,0.00,weatherlink.com 1.10,2013-11-04 15:20:00,
2013-11-04 09:35:00,46.9,40.0,30.19,SE,145,14.0,19.0,78,0.00,,,0.00,weatherlink.com 1.10,2013-11-04 15:35:00,
2013-11-04 09:50:00,48.1,42.0,30.19,SSE,167,13.0,21.0,78,0.00,,,0.00,weatherlink.com 1.10,2013-11-04 15:50:00,
2013-11-04 10:05:00,48.6,41.0,30.19,South,178,14.0,21.0,76,0.00,,,0.00,weatherlink.com 1.10,2013-11-04 16:05:00,
2013-11-04 10:20:00,50.5,42.0,30.18,SSE,153,11.0,21.0,72,0.00,,,0.00,weatherlink.com 1.10,2013-11-04 16:20:00,
2013-11-04 10:35:00,51.7,43.0,30.17,SSE,166,16.0,20.0,71,0.00,,,0.00,weatherlink.com 1.10,2013-11-04 16:35:00,
2013-11-04 10:50:00,52.1,42.0,30.17,South,184,18.0,21.0,68,0.00,,,0.00,weatherlink.com 1.10,2013-11-04 16:50:00,
2013-11-04 11:05:00,53.7,42.0,30.16,South,174,15.0,22.0,65,0.00,,,0.00,weatherlink.com 1.10,2013-11-04 17:05:00,
2013-11-04 11:20:00,53.8,43.0,30.16,South,174,10.0,23.0,66,0.00,,,0.00,weatherlink.com 1.10,2013-11-04 17:20:00,
2013-11-04 11:35:00,54.3,43.0,30.15,South,169,19.0,24.0,66,0.00,,,0.00,weatherlink.com 1.10,2013-11-04 17:35:00,
2013-11-04 11:50:00,53.7,44.0,30.14,SSE,148,13.0,21.0,69,0.00,,,0.00,weatherlink.com 1.10,2013-11-04 17:50:00,
2013-11-04 12:05:00,54.2,43.0,30.13,South,187,11.0,21.0,67,0.00,,,0.00,weatherlink.com 1.10,2013-11-04 18:05:00,
2013-11-04 12:20:00,54.3,44.0,30.13,SSE,165,13.0,20.0,68,0.00,,,0.00,weatherlink.com 1.10,2013-11-04 18:20:00,
2013-11-04 12:35:00,55.0,44.0,30.12,SSE,158,15.0,17.0,66,0.00,,,0.00,weatherlink.com 1.10,2013-11-04 18:35:00,
2013-11-04 12:50:00,55.2,44.0,30.12,SSE,159,16.0,23.0,65,0.00,,,0.00,weatherlink.com 1.10,2013-11-04 18:50:00,
2013-11-04 13:05:00,55.6,44.0,30.13,SSE,152,14.0,22.0,65,0.00,,,0.00,weatherlink.com 1.10,2013-11-04 19:05:00,
2013-11-04 13:21:00,56.3,45.0,30.12,South,177,17.0,22.0,66,0.00,,,0.00,weatherlink.com 1.10,2013-11-04 19:21:00,
2013-11-04 13:36:00,56.5,46.0,30.13,South,187,12.0,19.0,67,0.00,,,0.00,weatherlink.com 1.10,2013-11-04 19:36:00,
2013-11-04 13:51:00,56.7,45.0,30.12,SW,215,16.0,21.0,64,0.00,,,0.00,weatherlink.com 1.10,2013-11-04 19:51:00,
2013-11-04 14:21:00,55.8,45.0,30.11,SSE,165,10.0,24.0,68,0.00,,,0.00,weatherlink.com 1.10,2013-11-04 20:21:00,
2013-11-04 14:36:00,55.9,45.0,30.11,SSE,155,13.0,19.0,68,0.00,,,0.00,weatherlink.com 1.10,2013-11-04 20:36:00,
2013-11-04 14:51:00,56.3,46.0,30.11,SSW,205,16.0,22.0,68,0.00,,,0.00,weatherlink.com 1.10,2013-11-04 20:51:00,
2013-11-04 15:06:00,55.7,45.0,30.10,SSW,200,17.0,25.0,67,0.00,,,0.00,weatherlink.com 1.10,2013-11-04 21:06:00,
2013-11-04 15:51:00,54.3,45.0,30.10,SSE,162,15.0,19.0,71,0.00,,,0.00,weatherlink.com 1.10,2013-11-04 21:51:00,
2013-11-04 16:06:00,54.1,45.0,30.11,South,184,10.0,21.0,71,0.00,,,0.00,weatherlink.com 1.10,2013-11-04 22:06:00,
2013-11-04 16:21:00,53.4,45.0,30.11,South,181,11.0,19.0,73,0.00,,,0.00,weatherlink.com 1.10,2013-11-04 22:21:00,
2013-11-04 16:36:00,52.6,45.0,30.11,SSE,163,16.0,17.0,74,0.00,,,0.00,weatherlink.com 1.10,2013-11-04 22:36:00,
2013-11-04 17:06:00,51.7,45.0,30.12,SSE,155,11.0,14.0,77,0.00,,,0.00,weatherlink.com 1.10,2013-11-04 23:06:00,
2013-11-04 17:21:00,52.2,45.0,30.13,South,176,12.0,21.0,76,0.00,,,0.00,weatherlink.com 1.10,2013-11-04 23:21:00,
2013-11-04 17:36:00,52.2,45.0,30.14,SSW,203,15.0,19.0,76,0.00,,,0.00,weatherlink.com 1.10,2013-11-04 23:36:00,
2013-11-04 17:51:00,52.8,45.0,30.14,SSW,210,9.0,19.0,75,0.00,,,0.00,weatherlink.com 1.10,2013-11-04 23:51:00,
2013-11-04 18:06:00,52.6,45.0,30.15,South,181,10.0,16.0,75,0.00,,,0.00,weatherlink.com 1.10,2013-11-05 00:06:00,
2013-11-04 18:21:00,52.2,45.0,30.16,SSW,198,11.0,14.0,77,0.00,,,0.00,weatherlink.com 1.10,2013-11-05 00:21:00,
2013-11-04 18:36:00,52.1,45.0,30.16,SSW,199,8.0,16.0,77,0.00,,,0.00,weatherlink.com 1.10,2013-11-05 00:36:00,
2013-11-04 18:51:00,51.7,45.0,30.16,South,181,10.0,14.0,78,0.00,,,0.00,weatherlink.com 1.10,2013-11-05 00:51:00,
2013-11-04 19:06:00,51.7,45.0,30.17,SSW,207,8.0,14.0,78,0.00,,,0.00,weatherlink.com 1.10,2013-11-05 01:06:00,
2013-11-04 19:36:00,51.5,45.0,30.17,SSW,194,8.0,15.0,78,0.00,,,0.00,weatherlink.com 1.10,2013-11-05 01:36:00,
2013-11-04 19:51:00,51.4,45.0,30.17,South,169,11.0,13.0,79,0.00,,,0.00,weatherlink.com 1.10,2013-11-05 01:51:00,
2013-11-04 20:06:00,51.3,45.0,30.17,SSW,198,7.0,12.0,79,0.00,,,0.00,weatherlink.com 1.10,2013-11-05 02:06:00,
2013-11-04 20:21:00,51.2,45.0,30.18,SSE,162,9.0,16.0,80,0.00,,,0.00,weatherlink.com 1.10,2013-11-05 02:21:00,
2013-11-04 20:36:00,51.2,45.0,30.18,SSW,195,8.0,13.0,80,0.00,,,0.00,weatherlink.com 1.10,2013-11-05 02:36:00,
2013-11-04 20:51:00,51.2,45.0,30.18,SSE,166,11.0,13.0,80,0.00,,,0.00,weatherlink.com 1.10,2013-11-05 02:51:00,
2013-11-04 21:06:00,51.3,45.0,30.18,SSE,163,9.0,14.0,80,0.00,,,0.00,weatherlink.com 1.10,2013-11-05 03:06:00,
2013-11-04 21:36:00,51.1,45.0,30.19,SSW,204,8.0,12.0,81,0.00,,,0.00,weatherlink.com 1.10,2013-11-05 03:36:00,
2013-11-04 21:51:00,51.0,45.0,30.19,South,179,7.0,12.0,81,0.00,,,0.00,weatherlink.com 1.10,2013-11-05 03:51:00,
2013-11-04 22:06:00,51.2,46.0,30.19,SSW,209,9.0,12.0,81,0.00,,,0.00,weatherlink.com 1.10,2013-11-05 04:06:00,
2013-11-04 22:21:00,51.3,45.0,30.19,SSW,198,7.0,13.0,80,0.00,,,0.00,weatherlink.com 1.10,2013-11-05 04:21:00,
2013-11-04 22:36:00,51.3,46.0,30.20,SSW,197,9.0,13.0,81,0.00,,,0.00,weatherlink.com 1.10,2013-11-05 04:36:00,
2013-11-04 22:51:00,51.4,45.0,30.19,SSW,193,11.0,14.0,80,0.00,,,0.00,weatherlink.com 1.10,2013-11-05 04:51:00,
2013-11-04 23:06:00,51.4,45.0,30.20,SW,225,9.0,15.0,80,0.00,,,0.00,weatherlink.com 1.10,2013-11-05 05:06:00,
2013-11-04 23:21:00,51.2,46.0,30.20,SSW,197,12.0,14.0,81,0.00,,,0.00,weatherlink.com 1.10,2013-11-05 05:21:00,
2013-11-04 23:36:00,51.0,45.0,30.20,SW,222,11.0,14.0,81,0.00,,,0.00,weatherlink.com 1.10,2013-11-05 05:36:00,
2013-11-04 23:51:00,50.9,46.0,30.20,SSW,203,12.0,15.0,82,0.00,,,0.00,weatherlink.com 1.10,2013-11-05 05:51:00,